Montgomery, NY
on Thursday, December 7, 2017

Thursday
       
Previous Day Next Day
Daily Summary
 ActualAverage (KSWF)Record (KSWF)
Temperature
Mean Temperature °F °C °F °C  
Max Temperature 43°F 6°C 40°F 4°C 68°F 20°C (1998)
Min Temperature 25°F -4°C 24°F -4°C 6°F -14°C (1976)
Degree Days
Heating Degree Days 31    
Moisture
Dew Point 19°F -7°C   
Average Humidity 57    
Maximum Humidity 81    
Minimum Humidity 31    
Precipitation
Precipitation 0.00 in / 0.00 cm in / cm in / cm ()
Wind
Wind Speed 9 mph / 14 km/h   
Max Wind Speed 18 mph / 29 km/h   
Max Gust Speed 24 mph / 39 km/h   
Visibility 10 miles / 16 kilometers   
Events     
Averages and records for this station are not official NWS values.
Key: T is trace of precipitation, MM is missing value
Source: NWS Daily Summary
Seasonal Weather Averages
Time(EST)TemperatureDew PointHumidity Pressure Visibility Wind DirectionWind SpeedGust SpeedPrecipitationEvents Conditions
12:54 AM 35.1°F 1.7°C 21.0°F -6.1°C 57% 29.95 in / 1014.1 hPa 10.0 miles / 16.1 kilometers SW 10.4 mph / 16.7 km/h - N/A   Overcast
1:54 AM 34.0°F 1.1°C 21.0°F -6.1°C 59% 29.95 in / 1014.1 hPa 10.0 miles / 16.1 kilometers SSW 8.1 mph / 13.0 km/h - N/A   Overcast
2:54 AM 32.0°F 0.0°C 21.9°F -5.6°C 66% 29.95 in / 1014.0 hPa 10.0 miles / 16.1 kilometers SW 6.9 mph / 11.1 km/h - N/A   Mostly Cloudy
3:54 AM 30.0°F -1.1°C 21.0°F -6.1°C 69% 29.94 in / 1013.9 hPa 10.0 miles / 16.1 kilometers SSW 6.9 mph / 11.1 km/h - N/A   Clear
4:54 AM 28.0°F -2.2°C 21.0°F -6.1°C 75% 29.95 in / 1014.0 hPa 10.0 miles / 16.1 kilometers SW 6.9 mph / 11.1 km/h - N/A   Clear
5:54 AM 27.0°F -2.8°C 19.9°F -6.7°C 75% 29.95 in / 1014.2 hPa 10.0 miles / 16.1 kilometers SW 5.8 mph / 9.3 km/h - N/A   Clear
6:54 AM 25.0°F -3.9°C 19.9°F -6.7°C 81% 29.98 in / 1015.0 hPa 10.0 miles / 16.1 kilometers SSW 6.9 mph / 11.1 km/h - N/A   Clear
7:54 AM 28.0°F -2.2°C 21.0°F -6.1°C 75% 29.98 in / 1015.2 hPa 10.0 miles / 16.1 kilometers SSW 6.9 mph / 11.1 km/h - N/A   Clear
8:54 AM 34.0°F 1.1°C 24.1°F -4.4°C 67% 29.99 in / 1015.4 hPa 10.0 miles / 16.1 kilometers SSW 9.2 mph / 14.8 km/h - N/A   Clear
9:54 AM 39.0°F 3.9°C 21.0°F -6.1°C 49% 29.99 in / 1015.5 hPa 10.0 miles / 16.1 kilometers WSW 11.5 mph / 18.5 km/h - N/A   Clear
10:54 AM 39.9°F 4.4°C 19.0°F -7.2°C 43% 29.98 in / 1015.0 hPa 10.0 miles / 16.1 kilometers WSW 18.4 mph / 29.6 km/h 24.2 mph / 38.9 km/h N/A   Clear
11:54 AM 42.1°F 5.6°C 18.0°F -7.8°C 38% 29.95 in / 1014.0 hPa 10.0 miles / 16.1 kilometers WSW 15.0 mph / 24.1 km/h 21.9 mph / 35.2 km/h N/A   Clear
12:54 PM 43.0°F 6.1°C 15.1°F -9.4°C 32% 29.93 in / 1013.4 hPa 10.0 miles / 16.1 kilometers West 11.5 mph / 18.5 km/h 19.6 mph / 31.5 km/h N/A   Clear
1:54 PM 43.0°F 6.1°C 14.0°F -10.0°C 31% 29.91 in / 1012.9 hPa 10.0 miles / 16.1 kilometers WSW 16.1 mph / 25.9 km/h 21.9 mph / 35.2 km/h N/A   Clear
2:54 PM 42.1°F 5.6°C 16.0°F -8.9°C 35% 29.91 in / 1012.9 hPa 10.0 miles / 16.1 kilometers WSW 12.7 mph / 20.4 km/h 20.7 mph / 33.3 km/h N/A   Clear
3:54 PM 39.9°F 4.4°C 15.1°F -9.4°C 36% 29.92 in / 1013.2 hPa 10.0 miles / 16.1 kilometers West 10.4 mph / 16.7 km/h - N/A   Clear
4:54 PM 37.0°F 2.8°C 15.1°F -9.4°C 41% 29.93 in / 1013.3 hPa 10.0 miles / 16.1 kilometers WSW 9.2 mph / 14.8 km/h - N/A   Clear
5:54 PM 36.0°F 2.2°C 15.1°F -9.4°C 43% 29.94 in / 1013.7 hPa 10.0 miles / 16.1 kilometers WSW 6.9 mph / 11.1 km/h - N/A   Partly Cloudy
6:54 PM 37.0°F 2.8°C 18.0°F -7.8°C 46% 29.96 in / 1014.4 hPa 10.0 miles / 16.1 kilometers West 5.8 mph / 9.3 km/h - N/A   Mostly Cloudy
7:54 PM 36.0°F 2.2°C 19.0°F -7.2°C 50% 29.97 in / 1014.8 hPa 10.0 miles / 16.1 kilometers SW 3.5 mph / 5.6 km/h - N/A   Mostly Cloudy
8:54 PM 30.0°F -1.1°C 23.0°F -5.0°C 75% 29.98 in / 1015.2 hPa 10.0 miles / 16.1 kilometers WSW 3.5 mph / 5.6 km/h - N/A   Partly Cloudy
9:54 PM 27.0°F -2.8°C 19.9°F -6.7°C 75% 29.99 in / 1015.3 hPa 10.0 miles / 16.1 kilometers Calm Calm - N/A   Clear
10:54 PM 28.0°F -2.2°C 21.0°F -6.1°C 75% 29.99 in / 1015.4 hPa 10.0 miles / 16.1 kilometers SW 3.5 mph / 5.6 km/h - N/A   Partly Cloudy
11:54 PM 30.0°F -1.1°C 24.1°F -4.4°C 79% 30.00 in / 1015.8 hPa 10.0 miles / 16.1 kilometers SSW 5.8 mph / 9.3 km/h - N/A   Mostly Cloudy